Location: Godiavel Galaoual
(15.2485°N, 12.6604°W)
Time: 08:57:54
(UTC+00:00)

Cosmos 1733 Rocket - Pass Details

Date: 27 February 2020
Orbit: 603 x 628 km, 82.5° (Epoch: 08 April)

Event Time Altitude Azimuth Distance (km) Brightness Sun altitude
Rises 20:43:32 0° 192° (SSW) 2,900 6.7 -26.2°
Reaches altitude 10° 20:45:48 10° 196° (SSW) 1,992 5.8 -26.8°
Enters shadow 20:49:52 56° 258° (WSW) 742 3.6 -27.8°
